Location: Tucson
(32.2217°N, 110.9265°W)
Time: 04:39:12
(UTC-07:00)

Envisat - Visible Passes

Search period start: 28 September 2021 00:00
Search period end: 08 October 2021 00:00
Orbit: 764 x 766 km, 98.2° (Epoch: 28 September)

Date Brightness Start Highest point End Pass type
(mag) Time Alt. Az. Time Alt. Az. Time Alt. Az.
28 Sep 3.7 05:11:55 10° NNE 05:16:55 57° E 05:21:53 10° S visible
29 Sep 5.4 04:35:57 10° NE 04:39:56 23° E 04:43:55 10° SSE visible
30 Sep 3.0 05:37:09 10° N 05:42:14 77° WNW 05:47:17 10° SSW visible
01 Oct 4.3 05:00:33 10° NNE 05:05:23 43° E 05:10:10 10° S visible
02 Oct 5.8 04:25:00 10° NE 04:28:21 18° E 04:31:42 10° SE visible
03 Oct 3.1 05:25:38 10° NNE 05:30:44 82° ESE 05:35:48 10° S visible
04 Oct 4.8 04:49:16 10° NE 04:53:50 33° E 04:58:21 10° SSE visible
05 Oct 6.0 04:14:22 10° ENE 04:16:45 13° E 04:19:06 10° ESE visible
05 Oct 3.1 05:51:04 10° N 05:56:00 54° WNW 06:00:55 10° SSW visible
06 Oct 3.5 05:14:11 10° NNE 05:19:13 62° E 05:24:14 10° S visible
07 Oct 5.3 04:38:07 10° NE 04:42:15 25° E 04:46:23 10° SSE visible
